Regional Weather Roundup
Issued by NWS Albany, NY

Home | Current Version | Previous Version | Text Only | Print | Product List | Glossary On
Versions: 1 2 3 4 5 6 7 8 9 10 11 12 13 14 15 16 17 18 19 20 21 22 23 24 25 26 27 28 29 30 31 32 33 34 35 36 37 38 39 40 41 42 43 44 45 46 47 48 49 50
000
ASUS41 KALY 210810
RWRALY

NEW YORK STATE HOURLY WEATHER ROUNDUP
NATIONAL WEATHER SERVICE ALBANY NY
400 AM EDT THU SEP 21 2017

NOTE: "FAIR" INDICATES FEW OR NO CLOUDS BELOW 12,000 FEET WITH NO
SIGNIFICANT WEATHER AND/OR NO OBSTRUCTIONS TO VISIBILITY.

NYZ032-033-038>043-046>054-057>066-NYZ062>081-082-084-210900-
EAST


CITY           SKY/WX    TMP DP  RH WIND       PRES   REMARKS
ALBANY         MOCLDY    64  61  90 SW3       30.02R
GLENS FALLS    FOG       60  59  96 CALM      30.02R VSB 1/2
POUGHKEEPSIE   CLOUDY    69  63  81 N8        29.98R
NEWBURGH       PTCLDY    70  66  88 NE12      30.01R
MONTGOMERY     CLOUDY    63  61  93 CALM      29.99R
WHITE PLAINS   MOCLDY    70  63  78 NW13      29.96R
ISLIP          CLOUDY    73  64  73 N12       29.91R
NEW YORK CITY  CLOUDY    73  66  78 N13       29.94R
CENTRAL PARK   CLOUDY    72  64  76 VRB5      29.98R
$$

NYZ005>009-017-018-044>046-055-056-210900-
CENTRAL


CITY           SKY/WX    TMP DP  RH WIND       PRES   REMARKS
FULTON         FOG       60  59  96 CALM      30.05R VSB 1/4
SYRACUSE       PTCLDY    60  60 100 CALM      30.04R
ROME           PTCLDY    60  59  96 CALM      30.05S
ELMIRA         CLOUDY    61  61 100 SW6       30.08R FOG
BINGHAMTON     CLOUDY    62  61  96 CALM      30.07R
MONTICELLO     PTCLDY    61  60  97 NW3       30.05R
$$

NYZ026>034-041>043-087-210900-
NORTH


CITY           SKY/WX    TMP DP  RH WIND       PRES   REMARKS
WATERTOWN      FOG       55  55 100 CALM      30.07R VSB 1/4
FORT DRUM      NOT AVBL
OGDENSBURG     FAIR      58  57  97 CALM      30.08R FOG
MASSENA        CLEAR     61  61 100 NE5       30.09R
SARANAC LAKE   FOG       50  50 100 CALM      30.10R VSB 1/4
PLATTSBURGH    CLOUDY    61  59  93 N3        30.05R
$$

NYZ001>004-010>016-019>021-085-210900-
WEST


CITY           SKY/WX    TMP DP  RH WIND       PRES   REMARKS
NIAGARA FALLS  CLEAR     61  57  87 CALM      30.09R
BUFFALO        CLEAR     62  59  90 SE5       30.09S
DUNKIRK        CLEAR     56  56 100 CALM      30.09S FOG
JAMESTOWN      CLEAR     62  61  96 CALM      30.14R
WELLSVILLE     FOG       56  54  93 W5        30.15R VSB 1/4
ROCHESTER      PTCLDY    59  59 100 SW5       30.10R
PENN YAN       PTCLDY    61  59  93 CALM      30.09R
$$

             KEY
       WCI = WIND CHILL INDEX
       VSB = VISIBILITY
       HX  = HEAT INDEX
$$



USA.gov is the U.S. government's official web portal to all federal, state and local government web resources and services.